{"data":{"norad_id":58238,"intl_designator":"2023-171J","name":"STARLINK-30817","alt_names":[],"object_type":"PAYLOAD","status":"ACTIVE","operator":null,"country":"US","launch_date":"2023-11-08","launch_site_code":"AFETR","launch_vehicle":null,"mission":null,"orbit_class":"UNKNOWN","rcs_meters":null,"size_class":null,"mass_kg":null,"dimensions":null,"purposes":["comms"],"wikipedia_slug":null,"has_3d_model":false,"image_url":null,"decayed_at":null,"tle_current":{"epoch":"2026-05-25T04:54:22.313952Z","epoch_age_seconds":60980,"freshness":"FRESH","line1":"1 58238U 23171J   26145.20442493  .00000086  00000+0  12642-4 0  9998","line2":"2 58238  43.0010 213.3561 0001367 274.9225  85.1470 15.27568922141430","mean_motion":15.27568922,"eccentricity":0.0001367,"inclination_deg":43.001,"raan_deg":213.3561,"arg_perigee_deg":274.9225,"mean_anomaly_deg":85.147,"bstar":1.2642e-5,"rev_number":14143,"period_min":94.267432340444,"perigee_km":482.14433908351,"apogee_km":484.02019643131,"semimajor_km":6861.2192677574,"source":"CELESTRAK","updated_at":"2026-05-25T13:38:18.580825Z"}}}